Marrakech, Morocco

12:40 AM WEST on July 24, 2017 (GMT +0100)
Marrakech

Weather History for GMMX - February, 2013

Change the Weather History Date:

Saturday, February 9, 2013

  Actual Average Record
Temperature  
Mean Temperature 54 °F -  
Max Temperature 70 °F 69 °F 95 °F (2002)
Min Temperature 37 °F 46 °F 33 °F (2005)
Degree Days  
Heating Degree Days 12    
Growing Degree Days 4 (Base 50)    
Moisture  
Dew Point 32 °F    
Average Humidity 42    
Maximum Humidity 87    
Minimum Humidity 10    
Precipitation  
Precipitation 0.00 in 0.05 in - ()
Sea Level Pressure  
Sea Level Pressure 30.15 in    
Wind  
Wind Speed 9 mph ()    
Max Wind Speed 15 mph    
Max Gust Speed -    
Visibility 6.0 miles    
Events      
Averages and records for this station are not official NWS values.
T = Trace of Precipitation, MM = Missing Value Source: Averaged Metar Reports

Daily Weather History Graph

Daily Weather History Graph

Search for Another Location

Airport or City:

Trip Planner

Search our weather history database for the weather conditions in past years. The results will help you decide how hot, cold, wet, or windy it might be!

Date:

Astronomy

Feb. 09, 2013 Rise Set
Actual Time 7:19 AM WET 6:13 PM WET
Civil Twilight 6:54 AM WET 6:39 PM WET
Nautical Twilight 6:25 AM WET 7:07 PM WET
Astronomical Twilight 5:56 AM WET 7:36 PM WET
Moon 6:21 AM WET (2/9) 5:39 PM WET (2/9)
Length of Visible Light 11h 45m
Length of Day
10h 54m
Waning Crescent, 1% of the Moon is Illuminated
Feb 9
Waning Crescent
Feb 10
New
Feb 17
First Quarter
Feb 25
Full
Mar 4
Last Quarter

Hourly Weather History & Observations

Time (WET) Temp. Windchill Dew Point Humidity Pressure Visibility Wind Dir Wind Speed Gust Speed Precip Events Conditions
12:00 AM 45 °F - 37 °F 64% 30.18 in 6 mi East 8.1 mph - -  
12:00 AM 44.6 °F 40.7 °F 37.4 °F 76% 30.15 in - East 6.9 mph - N/A   Clear
3:00 AM 42 °F - 36 °F 70% 30.17 in - NNE 2.3 mph - -  
6:00 AM 40 °F - 37 °F 83% 30.19 in - East 9.2 mph - -  
7:30 AM 41.0 °F 34.7 °F 37.4 °F 87% 30.15 in - East 10.4 mph - N/A   Clear
8:00 AM 42.8 °F 37.5 °F 37.4 °F 81% 30.15 in - East 9.2 mph - N/A   Clear
8:30 AM 46.4 °F 41.9 °F 39.2 °F 76% 30.15 in - East 9.2 mph - N/A   Clear
9:00 AM 49 °F - 38 °F 57% 30.20 in 6 mi East 10.4 mph - -  
9:00 AM 48.2 °F - 39.2 °F 71% 30.18 in - East 10.4 mph - N/A   Clear
9:30 AM 50.0 °F - 37.4 °F 62% 30.18 in - East 11.5 mph - N/A   Clear
10:00 AM 53.6 °F - 39.2 °F 58% 30.18 in - ENE 8.1 mph - N/A   Clear
10:30 AM 55.4 °F - 39.2 °F 54% 30.18 in - NE 9.2 mph - N/A   Clear
11:00 AM 59.0 °F - 39.2 °F 48% 30.18 in - NE 6.9 mph - N/A   Clear
11:30 AM 62.6 °F - 39.2 °F 42% 30.18 in 6.2 mi ENE 6.9 mph - N/A   Unknown
12:00 PM 65 °F - 33 °F 19% 30.14 in 6 mi ENE 11.5 mph - -  
12:00 PM 64.4 °F - 32.0 °F 30% 30.15 in - ENE 11.5 mph - N/A   Clear
12:30 PM 66.2 °F - 26.6 °F 23% 30.15 in - ENE 11.5 mph - N/A   Clear
1:00 PM 68.0 °F - 26.6 °F 21% 30.12 in - ENE 12.7 mph - N/A   Clear
1:30 PM 69.8 °F - 23.0 °F 17% 30.12 in - ENE 13.8 mph - N/A   Clear
2:00 PM 69.8 °F - 30.2 °F 23% 30.12 in - NE 12.7 mph - N/A   Clear
2:30 PM 69.8 °F - 28.4 °F 21% 30.12 in - NNE 15.0 mph - N/A   Clear
3:00 PM 70 °F - 26 °F 10% 30.07 in 6 mi NNE 13.8 mph - -  
3:00 PM 69.8 °F - 26.6 °F 20% 30.09 in - NNE 13.8 mph - N/A   Clear
3:30 PM 69.8 °F - 24.8 °F 18% 30.09 in - NE 11.5 mph - N/A   Clear
4:00 PM 69.8 °F - 26.6 °F 20% 30.12 in - ENE 12.7 mph - N/A   Clear
4:30 PM 69.8 °F - 26.6 °F 20% 30.12 in - ENE 12.7 mph - N/A   Clear
5:00 PM 68.0 °F - 28.4 °F 23% 30.12 in - East 12.7 mph - N/A   Clear
5:30 PM 68.0 °F - 28.4 °F 23% 30.12 in - East 15.0 mph - N/A   Clear
6:00 PM 65 °F - 28 °F 14% 30.10 in 6 mi East 13.8 mph - -  
6:00 PM 64.4 °F - 28.4 °F 26% 30.12 in - East 13.8 mph - N/A   Clear
6:30 PM 60.8 °F - 26.6 °F 27% 30.12 in - East 9.2 mph - N/A   Clear
7:00 PM 57.2 °F - 26.6 °F 31% 30.15 in - ENE 5.8 mph - N/A   Clear
7:30 PM 55.4 °F - 26.6 °F 33% 30.15 in - ENE 5.8 mph - N/A   Clear
8:00 PM 53.6 °F - 28.4 °F 38% 30.15 in - ENE 5.8 mph - N/A   Clear
8:30 PM 53.6 °F - 28.4 °F 38% 30.15 in - ENE 4.6 mph - N/A   Clear
9:00 PM 53 °F - 30 °F 28% 30.17 in 6 mi NE 5.8 mph - -  
9:00 PM 51.8 °F - 30.2 °F 44% 30.15 in - ENE 5.8 mph - N/A   Clear
9:30 PM 50.0 °F - 30.2 °F 47% 30.15 in - ENE 6.9 mph - N/A   Clear
10:00 PM 50.0 °F - 30.2 °F 47% 30.15 in - East 6.9 mph - N/A   Clear
10:30 PM 50.0 °F - 32.0 °F 50% 30.15 in - ENE 9.2 mph - N/A   Clear
11:00 PM 46.4 °F 42.4 °F 30.2 °F 53% 30.18 in - East 8.1 mph - N/A   Clear
11:30 PM 46.4 °F 42.9 °F 32.0 °F 57% 30.18 in - East 6.9 mph - N/A   Clear